TimeCDT,TemperatureF,Dew PointF,Humidity,Sea Level PressureIn,VisibilityMPH,Wind Direction,Wind SpeedMPH,Gust SpeedMPH,PrecipitationIn,Events,Conditions,WindDirDegrees,DateUTC
12:09 AM,5.0,-0.4,78,29.95,10.0,Calm,Calm,-,N/A,,Clear,0,2014-03-15 05:09:00
12:29 AM,3.2,-2.2,78,29.96,10.0,Calm,Calm,-,N/A,,Clear,0,2014-03-15 05:29:00
12:49 AM,1.4,-4.0,78,29.96,10.0,Calm,Calm,-,N/A,,Clear,0,2014-03-15 05:49:00
1:09 AM,1.4,-5.8,72,29.97,10.0,Calm,Calm,-,N/A,,Clear,0,2014-03-15 06:09:00
1:29 AM,-0.4,-5.8,78,29.98,10.0,Calm,Calm,-,N/A,,Clear,0,2014-03-15 06:29:00
1:49 AM,-2.2,-5.8,85,29.98,10.0,Calm,Calm,-,N/A,,Clear,0,2014-03-15 06:49:00
2:09 AM,-2.2,-7.6,78,29.99,10.0,Calm,Calm,-,N/A,,Clear,0,2014-03-15 07:09:00
2:29 AM,-2.2,-7.6,78,29.99,10.0,Calm,Calm,-,N/A,,Clear,0,2014-03-15 07:29:00
2:49 AM,-4.0,-9.4,78,30.00,10.0,Calm,Calm,-,N/A,,Clear,0,2014-03-15 07:49:00
3:09 AM,-5.8,-9.4,84,30.01,10.0,Calm,Calm,-,N/A,,Clear,0,2014-03-15 08:09:00
3:29 AM,-5.8,-9.4,84,30.02,10.0,Calm,Calm,-,N/A,,Clear,0,2014-03-15 08:29:00
3:49 AM,-7.6,-11.2,84,30.03,10.0,Calm,Calm,-,N/A,,Clear,0,2014-03-15 08:49:00
4:09 AM,-7.6,-11.2,84,30.03,10.0,Calm,Calm,-,N/A,,Clear,0,2014-03-15 09:09:00
4:29 AM,-7.6,-13.0,77,30.05,10.0,Calm,Calm,-,N/A,,Clear,0,2014-03-15 09:29:00
4:49 AM,-9.4,-14.8,77,30.06,10.0,Calm,Calm,-,N/A,,Clear,0,2014-03-15 09:49:00
5:09 AM,-9.4,-14.8,77,30.07,10.0,Calm,Calm,-,N/A,,Clear,0,2014-03-15 10:09:00
5:29 AM,-11.2,-14.8,84,30.07,10.0,Calm,Calm,-,N/A,,Clear,0,2014-03-15 10:29:00
5:49 AM,-11.2,-16.6,77,30.09,10.0,Calm,Calm,-,N/A,,Clear,0,2014-03-15 10:49:00
6:09 AM,-11.2,-16.6,77,30.10,10.0,Calm,Calm,-,N/A,,Clear,0,2014-03-15 11:09:00
6:29 AM,-13.0,-18.4,77,30.10,10.0,Calm,Calm,-,N/A,,Clear,0,2014-03-15 11:29:00
6:49 AM,-13.0,-18.4,77,30.12,10.0,Calm,Calm,-,N/A,,Clear,0,2014-03-15 11:49:00
7:09 AM,-14.8,-18.4,84,30.13,10.0,Calm,Calm,-,N/A,,Clear,0,2014-03-15 12:09:00
7:29 AM,-14.8,-18.4,84,30.14,10.0,Calm,Calm,-,N/A,,Clear,0,2014-03-15 12:29:00
7:49 AM,-14.8,-18.4,84,30.16,10.0,Calm,Calm,-,N/A,,Clear,0,2014-03-15 12:49:00
8:09 AM,-14.8,-18.4,84,30.17,10.0,Calm,Calm,-,N/A,,Clear,0,2014-03-15 13:09:00
8:29 AM,-11.2,-16.6,77,30.18,10.0,Calm,Calm,-,N/A,,Clear,0,2014-03-15 13:29:00
8:49 AM,-5.8,-9.4,84,30.19,10.0,Calm,Calm,-,N/A,,Clear,0,2014-03-15 13:49:00
9:09 AM,-0.4,-2.2,92,30.20,10.0,NNW,4.6,-,N/A,,Clear,340,2014-03-15 14:09:00
9:29 AM,3.2,-0.4,85,30.21,10.0,North,4.6,-,N/A,,Clear,10,2014-03-15 14:29:00
9:49 AM,6.8,1.4,79,30.22,10.0,NNW,4.6,-,N/A,,Clear,330,2014-03-15 14:49:00
10:09 AM,8.6,1.4,73,30.24,10.0,NNW,4.6,-,N/A,,Clear,340,2014-03-15 15:09:00
10:29 AM,8.6,1.4,73,30.25,10.0,NNW,6.9,-,N/A,,Clear,340,2014-03-15 15:29:00
10:49 AM,10.4,-0.4,62,30.26,10.0,North,8.1,-,N/A,,Clear,360,2014-03-15 15:49:00
11:09 AM,12.2,-0.4,57,30.27,10.0,North,8.1,16.1,N/A,,Clear,350,2014-03-15 16:09:00
11:29 AM,12.2,-0.4,57,30.28,10.0,NNW,9.2,-,N/A,,Clear,330,2014-03-15 16:29:00
11:49 AM,12.2,-0.4,57,30.29,10.0,North,6.9,-,N/A,,Scattered Clouds,350,2014-03-15 16:49:00
12:09 PM,14.0,-0.4,53,30.29,10.0,NW,10.4,-,N/A,,Scattered Clouds,320,2014-03-15 17:09:00
12:29 PM,14.0,-0.4,53,30.30,10.0,NW,5.8,-,N/A,,Clear,320,2014-03-15 17:29:00
12:49 PM,15.8,-2.2,45,30.31,10.0,NW,8.1,-,N/A,,Clear,320,2014-03-15 17:49:00
1:09 PM,15.8,-2.2,45,30.32,10.0,NW,8.1,-,N/A,,Clear,320,2014-03-15 18:09:00
1:29 PM,15.8,-2.2,45,30.32,10.0,NW,6.9,-,N/A,,Clear,320,2014-03-15 18:29:00
1:49 PM,17.6,-2.2,42,30.33,10.0,NNW,6.9,-,N/A,,Clear,330,2014-03-15 18:49:00
2:09 PM,17.6,-4.0,38,30.33,10.0,NNW,9.2,-,N/A,,Clear,340,2014-03-15 19:09:00
2:29 PM,17.6,-2.2,42,30.34,10.0,NW,10.4,-,N/A,,Clear,320,2014-03-15 19:29:00
2:49 PM,17.6,-2.2,42,30.35,10.0,NW,10.4,-,N/A,,Clear,310,2014-03-15 19:49:00
3:09 PM,17.6,-4.0,38,30.35,10.0,NW,9.2,-,N/A,,Clear,320,2014-03-15 20:09:00
3:29 PM,17.6,-5.8,35,30.36,10.0,North,9.2,-,N/A,,Clear,360,2014-03-15 20:29:00
3:49 PM,17.6,-7.6,32,30.36,10.0,North,6.9,-,N/A,,Clear,350,2014-03-15 20:49:00
4:09 PM,17.6,-7.6,32,30.37,10.0,North,8.1,-,N/A,,Clear,360,2014-03-15 21:09:00
4:29 PM,17.6,-7.6,32,30.37,10.0,North,6.9,-,N/A,,Clear,350,2014-03-15 21:29:00
4:49 PM,17.6,-9.4,30,30.38,10.0,NNW,5.8,-,N/A,,Clear,340,2014-03-15 21:49:00
5:09 PM,17.6,-9.4,30,30.39,10.0,North,8.1,-,N/A,,Clear,360,2014-03-15 22:09:00
5:29 PM,17.6,-9.4,30,30.40,10.0,North,8.1,-,N/A,,Clear,360,2014-03-15 22:29:00
5:49 PM,15.8,-9.4,32,30.41,10.0,North,4.6,-,N/A,,Clear,350,2014-03-15 22:49:00
6:09 PM,15.8,-9.4,32,30.42,10.0,NNW,5.8,-,N/A,,Clear,340,2014-03-15 23:09:00
6:29 PM,14.0,-11.2,32,30.43,10.0,North,4.6,-,N/A,,Clear,350,2014-03-15 23:29:00
6:49 PM,12.2,-11.2,34,30.43,10.0,North,4.6,-,N/A,,Clear,350,2014-03-15 23:49:00
7:09 PM,8.6,-11.2,40,30.44,10.0,Calm,Calm,-,N/A,,Clear,0,2014-03-16 00:09:00
7:29 PM,6.8,-14.8,37,30.45,10.0,Calm,Calm,-,N/A,,Clear,0,2014-03-16 00:29:00
7:49 PM,1.4,-18.4,39,30.46,10.0,Calm,Calm,-,N/A,,Clear,0,2014-03-16 00:49:00
8:09 PM,-0.4,-18.4,43,30.46,10.0,Calm,Calm,-,N/A,,Clear,0,2014-03-16 01:09:00
8:29 PM,-4.0,-20.2,46,30.48,10.0,Calm,Calm,-,N/A,,Clear,0,2014-03-16 01:29:00
8:49 PM,-5.8,-20.2,50,30.48,10.0,Calm,Calm,-,N/A,,Clear,0,2014-03-16 01:49:00
9:09 PM,-7.6,-20.2,54,30.49,10.0,Calm,Calm,-,N/A,,Clear,0,2014-03-16 02:09:00
9:29 PM,-7.6,-22.0,50,30.49,10.0,Calm,Calm,-,N/A,,Clear,0,2014-03-16 02:29:00
9:49 PM,-9.4,-20.2,59,30.50,10.0,Calm,Calm,-,N/A,,Clear,0,2014-03-16 02:49:00
10:09 PM,-11.2,-20.2,64,30.50,10.0,Calm,Calm,-,N/A,,Clear,0,2014-03-16 03:09:00
10:29 PM,-11.2,-22.0,59,30.50,10.0,Calm,Calm,-,N/A,,Clear,0,2014-03-16 03:29:00
10:49 PM,-13.0,-22.0,64,30.50,10.0,Calm,Calm,-,N/A,,Clear,0,2014-03-16 03:49:00
11:09 PM,-14.8,-23.8,64,30.50,10.0,Calm,Calm,-,N/A,,Clear,0,2014-03-16 04:09:00
11:29 PM,-14.8,-23.8,64,30.50,10.0,Calm,Calm,-,N/A,,Clear,0,2014-03-16 04:29:00
11:49 PM,-14.8,-23.8,64,30.50,10.0,Calm,Calm,-,N/A,,Clear,0,2014-03-16 04:49:00